www.pogodaiklimat.ru

Погода и климат >> Архив погоды >> Бразилия >> Минас-Жерайс >> Итиютаба


ПОГОДА в Итиютабе

  • Прогноз погоды в Итиютабе
  • Монитор погоды в Итиютабе

АРХИВ ПОГОДЫ в Итиютабе

Время (UTC), дата Ветер
(напр.,м/с)
 
Видим.   Явления Облачность Т
(С)
Тd
(С)
f
(%)
Тe
(С)
Тes
(С)
Комфортность P
(гПа)
Po
(гПа)
Тmin
(С)
Tmax
(С)
R
(мм)
R24
(мм)
S
(см)
10 15.05 штиль 0
{1}
н/о н/о +14.5 +12.6 88 +14 +14 1018.5 955.2
11 15.05 штиль 0 н/о н/о +17.0 +14.9 87 +17 +17 1018.6 955.8
12 15.05 штиль 0
{2}
н/о н/о +20.1 +17.4 84 +23 +23 комфорт 1018.3 956.2
13 15.05 ЮВ 1
{2}
н/о н/о +23.2 +19.9 82 +30 +30 очень
душно
1017.6 956.1
14 15.05 Ю 1
{3}
н/о н/о +23.7 +19.6 78 +29 +29 душно 1017.1 955.8
15 15.05 Ю 1
{2}
н/о н/о +26.0 +21.2 75 +33 +33 очень
душно
1015.8 955.0
16 15.05 Ю 1
{3}
н/о н/о +26.2 +20.6 71 +33 +33 очень
душно
1014.8 954.1
17 15.05 ЮЗ 1
{3}
н/о н/о +27.3 +21.2 69 +34 +34 очень
душно
1013.6 953.2
18 15.05 ЮЗ 2
{3}
н/о н/о +28.0 +21.0 66 +35 +35 очень
душно
1012.7 952.5
19 15.05 ЮЗ 2
{3}
н/о н/о +26.8 +19.0 62 +32 +32 очень
душно
1013.1 952.6
20 15.05 Ю 3
{4}
н/о н/о +25.3 +17.3 61 +29 +29 душно 1013.7 952.9
21 15.05 Ю 1
{4}
н/о н/о +22.7 +15.3 63 +27 +27 душно 1015.0 953.6
22 15.05 Ю 1
{3}
н/о н/о +21.6 +14.6 64 +25 +25 комфорт 1015.9 954.2
23 15.05 Ю 1
{2}
н/о н/о +20.2 +14.2 68 +24 +24 комфорт 1016.7 954.7
00 16.05 Ю 1
{2}
н/о н/о +20.2 +14.6 70 +24 +24 комфорт 1017.6 955.5
01 16.05 штиль 0
{2}
н/о н/о +18.9 +13.8 72 +20 +20 1018.0 955.6
02 16.05 штиль 0
{2}
н/о н/о +17.5 +13.0 75 +18 +18 1018.3 955.6
03 16.05 штиль 0
{1}
н/о н/о +17.8 +13.7 77 +18 +18 1018.2 955.6
04 16.05 штиль 0
{1}
н/о н/о +17.2 +13.5 79 +17 +17 1017.6 954.9
05 16.05 штиль 0
{1}
н/о н/о +17.6 +14.2 80 +18 +18 1016.6 954.1
06 16.05 ЮЗ 1
{2}
н/о н/о +17.1 +14.1 83 +19 +19 1016.5 953.9
07 16.05 штиль 0
{2}
н/о н/о +17.5 +14.6 83 +17 +17 1016.1 953.6
08 16.05 штиль 0
{1}
н/о н/о +16.7 +14.1 85 +17 +17 1016.4 953.7
09 16.05 штиль 0
{1}
н/о н/о +16.4 +14.0 86 +16 +16 1017.1 954.3
10 16.05 штиль 0
{1}
н/о н/о +16.3 +14.0 86 +16 +16 1017.8 954.9
11 16.05 штиль 0
{1}
н/о н/о +20.0 +17.6 86 +23 +23 комфорт 1017.6 955.5
12 16.05 Ю 1
{2}
н/о н/о +21.1 +18.4 85 +25 +25 комфорт 1017.4 955.5
13 16.05 СВ 1
{2}
н/о н/о +24.2 +20.9 82 +30 +30 очень
душно
1017.1 955.9
14 16.05 В 1
{3}
н/о н/о +25.6 +21.6 79 +33 +33 очень
душно
1016.6 955.7
15 16.05 З 1
{3}
н/о н/о +26.3 +21.6 75 +34 +34 очень
душно
1015.9 955.2
16 16.05 штиль 0
{2}
н/о н/о +27.7 +22.0 71 +36 +36 очень
душно
1014.6 954.2
17 16.05 штиль 0
{2}
н/о н/о +27.5 +20.7 66 +34 +34 очень
душно
1013.8 953.4
18 16.05 Ю 1
{2}
н/о н/о +28.3 +20.4 62 +35 +35 очень
душно
1013.0 952.8
19 16.05 СВ 3
{8}
н/о н/о +19.7 +12.2 62 +21 +21 комфорт 1014.9 952.9
20 16.05 ЮВ 2
{8}
н/о н/о +19.2 +14.0 72 +21 +21 комфорт 1015.1 953.0 5
21 16.05 штиль 0
{4}
н/о н/о +19.4 +14.8 75 +21 +21 комфорт 1016.2 954.1
22 16.05 Ю 2
{5}
н/о н/о +18.7 +14.6 77 +20 +20 1017.2 954.9
23 16.05 ЮВ 2
{4}
н/о н/о +19.1 +15.5 80 +21 +21 комфорт 1017.9 955.6
00 17.05 В 2
{4}
н/о н/о +19.2 +15.8 81 +22 +22 комфорт 1018.1 955.8
01 17.05 В 3
{6}
н/о н/о +18.2 +15.0 82 +19 +19 1017.9 955.4 0.4
02 17.05 СВ 1
{5}
н/о н/о +17.6 +14.5 82 +19 +19 1018.2 955.6
03 17.05 В 1
{2}
н/о н/о +17.9 +14.7 82 +19 +19 1018.2 955.6
04 17.05 СВ 1
{2}
н/о н/о +17.1 +14.1 83 +19 +19 1018.0 955.3
05 17.05 З 1
{2}
н/о н/о +17.0 +14.2 84 +19 +19 1018.8 956.0
06 17.05 ЮВ 1
{2}
н/о н/о +16.9 +14.3 85 +18 +18 1018.0 955.2
07 17.05 СВ 1
{2}
н/о н/о +16.8 +14.3 85 +18 +18 1017.6 954.8
08 17.05 В 1
{1}
н/о н/о +16.8 +14.4 86 +18 +18 1017.4 954.6
09 17.05 штиль 0
{1}
н/о н/о +16.8 +14.5 86 +17 +17 1017.1 954.4
10 17.05 штиль 0
{2}
н/о н/о +17.1 +14.9 87 +17 +17 1017.5 954.8
11 17.05 штиль 0
{1}
н/о н/о +19.4 +17.1 87 +21 +21 комфорт 1017.2 955.0
12 17.05 С 1
{1}
н/о н/о +20.5 +17.9 85 +26 +26 душно 1017.9 955.9
13 17.05 ЮВ 1
{2}
н/о н/о +21.2 +18.5 85 +26 +26 душно 1017.8 955.9
14 17.05 ЮВ 1
{2}
н/о н/о +22.2 +19.2 83 +28 +28 душно 1017.8 956.1
15 17.05 ЮВ 1
{3}
н/о н/о +23.1 +19.7 81 +30 +30 очень
душно
1016.6 955.2
16 17.05 В 1
{3}
н/о н/о +24.5 +20.4 78 +30 +30 очень
душно
1015.7 954.6
17 17.05 ЮВ 1
{3}
н/о н/о +24.7 +20.2 76 +30 +30 очень
душно
1014.9 953.9
18 17.05 ЮВ 2
{4}
н/о н/о +23.1 +18.5 75 +29 +29 очень
душно
1014.6 953.3
19 17.05 В 1
{3}
н/о н/о +24.4 +19.3 73 +29 +29 душно 1014.0 953.0
20 17.05 ЮВ 1
{3}
н/о н/о +22.8 +17.6 72 +28 +28 душно 1014.4 953.1
21 17.05 Ю 1
{2}
н/о н/о +20.2 +15.8 76 +24 +24 комфорт 1015.1 953.2
22 17.05 СЗ 1
{1}
н/о н/о +19.2 +15.4 79 +22 +22 комфорт 1015.9 953.7
23 17.05 штиль 0
{1}
н/о н/о +19.3 +15.8 80 +21 +21 комфорт 1016.5 954.3
00 18.05 В 1
{1}
н/о н/о +18.6 +15.5 82 +21 +21 комфорт 1017.3 954.9
01 18.05 штиль 0
{1}
н/о н/о +18.0 +15.2 84 +18 +18 1017.5 955.0
02 18.05 В 1
{1}
н/о н/о +17.4 +14.7 84 +19 +19 1017.5 954.9
03 18.05 ЮВ 1
{1}
н/о н/о +16.5 +14.1 86 +18 +18 1017.7 954.9
04 18.05 Ю 1
{1}
н/о н/о +15.8 +13.5 86 +17 +17 1017.7 954.7
05 18.05 С 1
{1}
н/о н/о +15.3 +13.2 87 +17 +17 1017.3 954.2
06 18.05 В 1
{1}
н/о н/о +15.4 +13.4 88 +17 +17 1016.9 953.9
07 18.05 штиль 0
{1}
н/о н/о +15.4 +13.4 88 +15 +15 1017.0 954.0
08 18.05 Ю 1
{1}
н/о н/о +14.7 +12.9 89 +16 +16 1017.2 954.0 0.2
09 18.05 В 1
{1}
н/о н/о +14.5 +12.8 90 +16 +16 1017.7 954.4
10 18.05 штиль 0
{1}
н/о н/о +14.4 +12.7 90 +14 +14 1018.2 954.9
11 18.05 СВ 1
{1}
н/о н/о +17.4 +15.6 89 +19 +19 1018.2 955.5
12 18.05 СВ 1
{2}
н/о н/о +20.1 +17.9 87 +24 +24 комфорт 1018.3 956.2
13 18.05 СВ 1
{2}
н/о н/о +22.1 +19.5 85 +28 +28 душно 1018.2 956.5
14 18.05 СВ 1
{3}
н/о н/о +25.1 +21.9 82 +32 +32 очень
душно
1017.0 956.0
15 18.05 В 1
{2}
н/о н/о +25.4 +21.7 80 +33 +33 очень
душно
1016.3 955.4
16 18.05 СВ 1
{2}
н/о н/о +25.6 +21.1 76 +32 +32 очень
душно
1015.3 954.5
17 18.05 В 1
{3}
н/о н/о +26.7 +21.2 72 +34 +34 очень
душно
1014.3 953.7
18 18.05 СВ 1
{2}
н/о н/о +27.0 +20.7 68 +34 +34 очень
душно
1013.7 953.2
19 18.05 С 1
{2}
н/о н/о +25.8 +18.8 65 +31 +31 очень
душно
1013.7 953.0
20 18.05 штиль 0
{1}
н/о н/о +26.4 +18.5 62 +31 +31 душно 1013.9 953.3
21 18.05 штиль 0
{1}
н/о н/о +22.3 +15.6 66 +26 +26 жарко 1015.1 953.6
22 18.05 штиль 0
{1}
н/о н/о +20.6 +14.8 69 +23 +23 комфорт 1016.0 954.1
23 18.05 штиль 0
{1}
н/о н/о +18.8 +13.9 73 +20 +20 1017.1 954.8
00 19.05 В 1
{1}
н/о н/о +18.0 +13.8 76 +20 +20 1017.9 955.4
01 19.05 штиль 0
{1}
н/о н/о +17.2 +13.5 79 +17 +17 1018.2 955.5
02 19.05 штиль 0
{1}
н/о н/о +16.4 +13.1 81 +16 +16 1018.4 955.5
03 19.05 штиль 0
{1}
н/о н/о +16.6 +13.6 82 +16 +16 1018.2 955.4
04 19.05 штиль 0
{1}
н/о н/о +15.8 +13.1 84 +16 +16 1018.0 955.0
05 19.05 штиль 0
{1}
н/о н/о +15.5 +13.0 85 +15 +15 1017.8 954.7
06 19.05 штиль 0
{1}
н/о н/о +15.0 +12.7 86 +15 +15 1017.6 954.5
07 19.05 штиль 0
{1}
н/о н/о +14.3 +12.2 87 +14 +14 1017.9 954.6
08 19.05 штиль 0
{1}
н/о н/о +14.1 +12.0 87 +14 +14 1018.2 954.8
09 19.05 штиль 0
{1}
н/о н/о +13.8 +11.8 88 +13 +13 1018.6 955.1
10 19.05 штиль 0
{1}
н/о н/о +13.5 +11.7 89 +13 +13 1019.2 955.6 0.2
11 19.05 штиль 0
{1}
н/о н/о +16.6 +14.8 89 +16 +16 1018.9 956.0
12 19.05 В 1
{2}
н/о н/о +21.2 +18.7 86 +26 +26 душно 1018.5 956.6
13 19.05 В 1
{2}
н/о н/о +23.7 +20.7 83 +30 +30 очень
душно
1018.3 956.9
14 19.05 В 1
{2}
н/о н/о +25.7 +22.1 81 +33 +33 очень
душно
1017.4 956.5
15 19.05 СЗ 1
{2}
н/о н/о +27.0 +22.2 75 +35 +35 очень
душно
1016.5 955.9
16 19.05 З 1
{2}
н/о н/о +27.6 +21.5 69 +35 +35 очень
душно
1015.3 954.9
17 19.05 Ю 1
{3}
н/о н/о +28.6 +20.2 60 +35 +35 очень
душно
1014.2 954.0
18 19.05 ЮЗ 2
{3}
н/о н/о +28.5 +17.8 52 +33 +33 очень
душно
1013.7 953.5
19 19.05 ЮЗ 2
{3}
н/о н/о +27.7 +15.4 47 +31 +31 душно 1013.4 953.1
20 19.05 ЮЗ 2
{3}
н/о н/о +26.8 +13.6 44 +29 +29 жарко 1013.8 953.3
21 19.05 Ю 1
{2}
н/о н/о +21.6 +10.6 50 +23 +23 комфорт 1015.1 953.5
22 19.05 штиль 0
{2}
н/о н/о +19.1 +10.5 57 +20 +20 1016.1 953.9
23 19.05 штиль 0
{1}
н/о н/о +18.2 +10.9 62 +18 +18 1016.7 954.3
00 20.05 штиль 0 н/о н/о +17.1 +11.0 67 +17 +17 1017.6 954.9
01 20.05 штиль 0 н/о н/о +15.3 +10.2 72 +15 +15 1018.3 955.2
02 20.05 штиль 0 н/о н/о +14.8 +10.4 75 +15 +15 1018.3 955.1
03 20.05 штиль 0 н/о н/о +14.1 +10.2 77 +14 +14 1018.4 955.0
04 20.05 штиль 0
{1}
н/о н/о +13.7 +10.2 79 +13 +13 1018.4 954.9
05 20.05 штиль 0
{2}
н/о н/о +13.6 +10.5 82 +13 +13 1018.0 954.5
06 20.05 штиль 0
{2}
н/о н/о +13.7 +10.8 83 +13 +13 1017.7 954.3
07 20.05 штиль 0
{1}
н/о н/о +13.0 +10.4 84 +13 +13 1017.4 953.8
08 20.05 штиль 0
{1}
н/о н/о +12.5 +10.0 85 +12 +12 1018.0 954.3
09 20.05 штиль 0 н/о н/о +12.0 +9.7 86 +11 +11 1018.4 954.6
10 20.05 штиль 0 н/о н/о +11.9 +9.7 86 +11 +11 1019.2 955.3
11 20.05 штиль 0 н/о н/о +16.1 +13.9 87 +16 +16 1019.0 956.0
12 20.05 штиль 0
{1}
н/о н/о +19.7 +17.1 85 +22 +22 комфорт 1018.9 956.7
13 20.05 СВ 1
{2}
н/о н/о +23.2 +19.9 82 +30 +30 очень
душно
1018.5 957.0
14 20.05 В 1
{2}
н/о н/о +25.4 +21.4 79 +32 +32 очень
душно
1017.4 956.4
15 20.05 штиль 0
{2}
н/о н/о +26.9 +21.0 70 +34 +34 очень
душно
1016.0 955.4
16 20.05 С 1
{3}
н/о н/о +28.8 +20.7 62 +36 +36 очень
душно
1015.0 954.8
17 20.05 С 1
{3}
н/о н/о +28.7 +18.5 54 +34 +34 очень
душно
1013.8 953.7
18 20.05 СЗ 1
{3}
н/о н/о +29.4 +16.4 45 +33 +33 душно 1013.1 953.1
19 20.05 штиль 0
{3}
н/о н/о +28.6 +13.2 39 +30 +30 жарко 1013.0 952.9
20 20.05 штиль 0
{1}
н/о н/о +27.0 +10.8 36 +28 +28 жарко 1013.5 953.0
21 20.05 Ю 1
{2}
н/о н/о +21.9 +9.2 44 +23 +23 комфорт 1014.7 953.2
22 20.05 штиль 0
{2}
н/о н/о +19.6 +10.0 54 +21 +21 комфорт 1015.6 953.5
23 20.05 штиль 0 н/о н/о +17.2 +9.7 61 +17 +17 1016.6 954.0
00 21.05 штиль 0
{1}
н/о н/о +15.0 +8.9 67 +15 +15 1017.4 954.3
01 21.05 штиль 0
{1}
н/о н/о +14.6 +9.5 71 +14 +14 1018.0 954.7
02 21.05 штиль 0 н/о н/о +14.2 +9.9 75 +14 +14 1018.2 954.8
03 21.05 штиль 0 н/о н/о +13.6 +9.9 78 +13 +13 1018.3 954.8
04 21.05 штиль 0 н/о н/о +13.3 +9.9 80 +13 +13 1018.4 954.8
05 21.05 штиль 0
{1}
н/о н/о +13.1 +10.0 81 +13 +13 1017.8 954.2
06 21.05 штиль 0 н/о н/о +12.9 +10.1 83 +12 +12 1017.4 953.8
07 21.05 штиль 0 н/о н/о +12.2 +9.5 84 +12 +12 1017.1 953.4 0.2
08 21.05 штиль 0 н/о н/о +11.8 +9.3 85 +11 +11 1017.3 953.5
09 21.05 штиль 0
{1}
н/о н/о +12.1 +9.8 86 +12 +12 1017.8 954.0
10 21.05 штиль 0
{1}
н/о н/о +11.9 +9.7 86 +11 +11 1018.6 954.7
11 21.05 штиль 0 н/о н/о +15.5 +13.2 86 +15 +15 1018.4 955.3
12 21.05 штиль 0
{1}
н/о н/о +20.0 +17.2 84 +23 +23 комфорт 1017.8 955.7
13 21.05 штиль 0
{2}
н/о н/о +23.3 +19.9 81 +30 +30 очень
душно
1017.3 955.9
14 21.05 штиль 0
{2}
н/о н/о +26.9 +22.5 77 +35 +35 очень
душно
1016.3 955.7
15 21.05 С 1
{2}
н/о н/о +29.3 +23.2 70 +40 +40 очень
душно
1015.2 955.1
16 21.05 СЗ 1
{3}
н/о н/о +29.7 +21.4 61 +38 +38 очень
душно
1014.6 954.6
17 21.05 СЗ 1
{3}
н/о н/о +30.4 +19.8 53 +37 +37 очень
душно
1013.5 953.7
18 21.05 СЗ 1
{3}
н/о н/о +30.5 +16.8 44 +34 +34 очень
душно
1012.7 953.0
19 21.05 З 1
{2}
н/о н/о +30.3 +14.5 38 +32 +32 жарко 1012.7 952.9
20 21.05 З 1
{2}
н/о н/о +28.1 +11.9 37 +29 +29 жарко 1013.5 953.3
21 21.05 Ю 1
{2}
н/о н/о +23.0 +10.7 46 +25 +25 комфорт 1014.9 953.6
22 21.05 штиль 0
{1}
н/о н/о +20.7 +11.3 55 +22 +22 комфорт 1015.5 953.7
23 21.05 штиль 0
{1}
н/о н/о +19.1 +11.2 60 +20 +20 1016.1 953.9
00 22.05 штиль 0
{1}
н/о н/о +17.5 +11.1 66 +18 +18 1016.9 954.3
01 22.05 штиль 0 н/о н/о +16.8 +11.4 70 +17 +17 1017.2 954.5
02 22.05 штиль 0 н/о н/о +16.0 +11.4 74 +16 +16 1017.6 954.7
03 22.05 штиль 0
{1}
н/о н/о +15.3 +11.4 78 +15 +15 1018.0 954.9
04 22.05 штиль 0 н/о н/о +15.3 +11.8 80 +15 +15 1017.8 954.7
05 22.05 штиль 0
{1}
н/о н/о +14.7 +11.6 82 +14 +14 1017.7 954.5
06 22.05 штиль 0
{1}
н/о н/о +15.0 +12.0 82 +15 +15 1017.4 954.3
08 22.05 штиль 0
{1}
н/о н/о +14.2 +11.7 85 +14 +14 1017.2 953.9
09 22.05 штиль 0 н/о н/о +13.5 +11.1 85 +13 +13 1017.8 954.3
10 22.05 штиль 0 н/о н/о +14.0 +11.8 87 +14 +14 1018.0 954.6

 

Местоположение метеостанции Итиютаба (Минас-Жерайс, Бразилия): широта -18.95 долгота -49.53 высота над уровнем моря 562 м.

В архиве по умолчанию представлена погода в Итиютабе за последнюю неделю. Архивные данные за месяц целиком и за предыдущие месяцы, начиная с января 2011 года, Вы можете получить, выбрав интересующий диапазон дат из раскрывающегося списка и нажав кнопку "Ввод!".


*Определитесь, кто Вы:
робот инопланетянин человек

Внимание! Время в таблицах - всемирное. Для получения местного времени необходимо прибавить поправку, которая равна -3 ч.

Смотрите также архив погоды в соседних городах и на ближайших метеорологических станциях:

Погода в Капина-Верде (Минас-Жерайс, Бразилия) (65 км)
Погода в Итумбиаре (Гояс, Бразилия) (68 км)
Погода в Сан-Симао (Гояс, Бразилия) (116 км)
Погода в Уберландии (Минас-Жерайс, Бразилия) (135 км)
Погода в Морриньюсе (Гояс, Бразилия) (144 км)
Погода в Вотупоранге (Сан-Паулу, Бразилия) (169 км)
Погода в Вотупоранге (Сан-Паулу, Бразилия) (170 км)
Погода в Жалисе (Сан-Паулу, Бразилия) (176 км)
Погода в Консейсан-дас-Алагоасе (Минас-Жерайс, Бразилия) (185 км)
Погода в Рио-Верде (Гояс, Бразилия) (186 км)

Пояснения к столбцам:

Ветер - указаны скорость ветра в м/с - средняя за 10 мин, порывы в срок и между сроками (в фигурных скобках) и направление, откуда дует ветер: С - северный, СВ - северо-восточный, В - восточный, ЮВ - юго-восточный, Ю - южный, ЮЗ - юго-западный, З - западный, СЗ - северо-западный.
Видимость - горизонтальная дальность видимости в метрах или километрах. При видимости от 1 до 10 км при отсутствии осадков обычно наблюдается дымка, при ухудшении видимости до 1 км и менее - туман. В сухую погоду видимость может ухудшаться дымом, пылью или мглою.
Явления - указаны атмосферные явления, наблюдавшиеся в срок или в последний час перед сроком; фигурными скобками обозначены явления, наблюдавшиеся между сроками (за 1-3 часа до срока); квадратными скобками обозначены град или гололедные отложения с указанием их диаметра в мм.
Облачность - указаны через наклонную черту общая и нижняя облачность в баллах и высота нижней границы облаков в метрах; квадратными скобками обозначены формы облаков: Ci - перистые, Cs - перисто-слоистые, Cc - перисто-кучевые, Ac - высококучевые, As - высокослоистые, Sc - слоисто-кучевые, Ns - слоисто-дождевые, Cu - кучевые, Cb - кучево-дождевые. Подробнее классификацию облаков см. в Атласе облаков (PDF).
T - Температура воздуха - температура, измеренная на высоте 2 м над землей.
Td - Температура точки росы - температура, при понижении до которой содержащийся в воздухе водяной пар достигнет насыщения.
f - Относительная влажность воздуха - влажноcть воздуха, измеренная на высоте 2 м над землей.
Te - Эффективная температура - температура, которую ощущает одетый по сезону человек в тени. Характеристика душности погоды. При расчете учитывается влияние влажности воздуха и скорости ветра на теплоощущения человека.
Tes - Эффективная температура на солнце - температура, которую ощущает человек, с поправкой на солнечный нагрев. Характеристика знойности погоды. Зависит от высоты солнца над горизонтом, облачности и скорости ветра. Ночью, в пасмурную погоду, а также при ветре 12 м/с и более поправка равна нулю.
P - Атмосферное давление - приведенное к уровню моря атмосферное давление.
Po - Атмосферное давление - измеренное на уровне метеостанции атмосферное давление.
Tmin - Минимальная температура - минимум температуры воздуха на высоте 2 м над землей.
Tmax - Максимальная температура - максимум температуры воздуха на высоте 2 м над землей.
R - Количество осадков - Количество выпавших осадков за период времени, мм. При наведении курсора мыши на число - период времени, за который выпало указанное количество осадков.
R24 - Количество осадков - Количество выпавших осадков за 24 часа, мм.
S - Снежный покров - Высота снежного покрова, см. При наведении курсора мыши на число - состояние снежного покрова и степень покрытия местности в баллах.